Date, Date modified: 2024-03  missing value -999 https://psl.noaa.gov/data/timeseries/month/
1948-01-01, 1557.000
1948-02-01, 1343.000
1948-03-01, 1355.000
1948-04-01, 2081.000
1948-05-01, 2265.000
1948-06-01, 1955.000
1948-07-01, 1828.000
1948-08-01, 1728.000
1948-09-01, 1637.000
1948-10-01, 1591.000
1948-11-01, 1654.000
1948-12-01, 1933.000
1949-01-01, 1835.000
1949-02-01, 2202.000
1949-03-01, 2039.000
1949-04-01, 1825.000
1949-05-01, 1549.000
1949-06-01, 1575.000
1949-07-01, 1599.000
1949-08-01, 1752.000
1949-09-01, 1725.000
1949-10-01, 1782.000
1949-11-01, 1804.000
1949-12-01, 1652.000
1950-01-01, 1507.000
1950-02-01, 1433.000
1950-03-01, 1378.000
1950-04-01, 1643.000
1950-05-01, 1571.000
1950-06-01, 1287.000
1950-07-01, 1341.000
1950-08-01, 1209.000
1950-09-01,  986.000
1950-10-01,  999.000
1950-11-01, 1019.000
1950-12-01, 1011.000
1951-01-01, 1079.000
1951-02-01, 1019.000
1951-03-01, 1025.000
1951-04-01, 1271.000
1951-05-01, 1686.000
1951-06-01, 1617.000
1951-07-01, 1163.000
1951-08-01, 1098.000
1951-09-01, 1178.000
1951-10-01, 1060.000
1951-11-01, 1044.000
1951-12-01, 1024.000
1952-01-01,  954.000
1952-02-01,  862.000
1952-03-01,  785.000
1952-04-01,  840.000
1952-05-01,  809.000
1952-06-01,  848.000
1952-07-01,  888.000
1952-08-01,  933.000
1952-09-01,  815.000
1952-10-01,  828.000
1952-11-01,  834.000
1952-12-01,  857.000
1953-01-01,  832.000
1953-02-01,  728.000
1953-03-01,  704.000
1953-04-01,  810.000
1953-05-01,  725.000
1953-06-01,  730.000
1953-07-01,  698.000
1953-08-01,  755.000
1953-09-01,  743.000
1953-10-01,  719.000
1953-11-01,  714.000
1953-12-01,  708.000
1954-01-01,  687.000
1954-02-01,  692.000
1954-03-01,  719.000
1954-04-01,  687.000
1954-05-01,  680.000
1954-06-01,  673.000
1954-07-01,  677.000
1954-08-01,  699.000
1954-09-01,  701.000
1954-10-01,  732.000
1954-11-01,  726.000
1954-12-01,  755.000
1955-01-01,  843.000
1955-02-01,  820.000
1955-03-01,  748.000
1955-04-01,  773.000
1955-05-01,  828.000
1955-06-01,  888.000
1955-07-01,  873.000
1955-08-01,  907.000
1955-09-01,  951.000
1955-10-01, 1118.000
1955-11-01, 1300.000
1955-12-01, 1346.000
1956-01-01, 1412.000
1956-02-01, 1672.000
1956-03-01, 1606.000
1956-04-01, 1659.000
1956-05-01, 1634.000
1956-06-01, 1540.000
1956-07-01, 1628.000
1956-08-01, 1938.000
1956-09-01, 2009.000
1956-10-01, 2016.000
1956-11-01, 2504.000
1956-12-01, 2537.000
1957-01-01, 2312.000
1957-02-01, 1867.000
1957-03-01, 1978.000
1957-04-01, 2000.000
1957-05-01, 2085.000
1957-06-01, 2521.000
1957-07-01, 2180.000
1957-08-01, 2023.000
1957-09-01, 2671.000
1957-10-01, 2831.000
1957-11-01, 2592.000
1957-12-01, 2865.000
1958-01-01, 2515.000
1958-02-01, 2122.000
1958-03-01, 2515.000
1958-04-01, 2459.000
1958-05-01, 2186.000
1958-06-01, 2205.000
1958-07-01, 2241.000
1958-08-01, 2370.000
1958-09-01, 2435.000
1958-10-01, 2280.000
1958-11-01, 2092.000
1958-12-01, 2382.000
1959-01-01, 2745.000
1959-02-01, 2079.000
1959-03-01, 2292.000
1959-04-01, 2106.000
1959-05-01, 2127.000
1959-06-01, 2175.000
1959-07-01, 2030.000
1959-08-01, 2342.000
1959-09-01, 1943.000
1959-10-01, 1651.000
1959-11-01, 1848.000
1959-12-01, 1822.000
1960-01-01, 2026.000
1960-02-01, 1709.000
1960-03-01, 1468.000
1960-04-01, 1676.000
1960-05-01, 1627.000
1960-06-01, 1619.000
1960-07-01, 1639.000
1960-08-01, 1744.000
1960-09-01, 1645.000
1960-10-01, 1423.000
1960-11-01, 1489.000
1960-12-01, 1381.000
1961-01-01, 1220.000
1961-02-01, 1064.000
1961-03-01, 1048.000
1961-04-01, 1050.000
1961-05-01,  993.000
1961-06-01, 1099.000
1961-07-01, 1165.000
1961-08-01, 1062.000
1961-09-01, 1127.000
1961-10-01,  967.000
1961-11-01,  903.000
1961-12-01,  948.000
1962-01-01,  949.000
1962-02-01, 1022.000
1962-03-01, 1003.000
1962-04-01,  962.000
1962-05-01,  979.000
1962-06-01,  910.000
1962-07-01,  807.000
1962-08-01,  773.000
1962-09-01,  895.000
1962-10-01,  878.000
1962-11-01,  849.000
1962-12-01,  820.000
1963-01-01,  795.000
1963-02-01,  797.000
1963-03-01,  778.000
1963-04-01,  795.000
1963-05-01,  878.000
1963-06-01,  835.000
1963-07-01,  759.000
1963-08-01,  809.000
1963-09-01,  851.000
1963-10-01,  851.000
1963-11-01,  817.000
1963-12-01,  784.000
1964-01-01,  754.000
1964-02-01,  768.000
1964-03-01,  759.000
1964-04-01,  726.000
1964-05-01,  695.000
1964-06-01,  690.000
1964-07-01,  670.000
1964-08-01,  693.000
1964-09-01,  702.000
1964-10-01,  734.000
1964-11-01,  737.000
1964-12-01,  788.000
1965-01-01,  786.000
1965-02-01,  752.000
1965-03-01,  741.000
1965-04-01,  720.000
1965-05-01,  782.000
1965-06-01,  770.000
1965-07-01,  743.000
1965-08-01,  748.000
1965-09-01,  766.000
1965-10-01,  802.000
1965-11-01,  777.000
1965-12-01,  778.000
1966-01-01,  879.000
1966-02-01,  842.000
1966-03-01,  903.000
1966-04-01,  972.000
1966-05-01,  985.000
1966-06-01,  963.000
1966-07-01, 1067.000
1966-08-01, 1066.000
1966-09-01, 1109.000
1966-10-01, 1086.000
1966-11-01, 1133.000
1966-12-01, 1246.000
1967-01-01, 1477.000
1967-02-01, 1470.000
1967-03-01, 1606.000
1967-04-01, 1299.000
1967-05-01, 1430.000
1967-06-01, 1202.000
1967-07-01, 1403.000
1967-08-01, 1537.000
1967-09-01, 1321.000
1967-10-01, 1361.000
1967-11-01, 1453.000
1967-12-01, 1630.000
1968-01-01, 1891.000
1968-02-01, 1732.000
1968-03-01, 1426.000
1968-04-01, 1295.000
1968-05-01, 1549.000
1968-06-01, 1423.000
1968-07-01, 1372.000
1968-08-01, 1422.000
1968-09-01, 1410.000
1968-10-01, 1525.000
1968-11-01, 1385.000
1968-12-01, 1484.000
1969-01-01, 1527.000
1969-02-01, 1552.000
1969-03-01, 1723.000
1969-04-01, 1555.000
1969-05-01, 1454.000
1969-06-01, 1622.000
1969-07-01, 1366.000
1969-08-01, 1430.000
1969-09-01, 1373.000
1969-10-01, 1540.000
1969-11-01, 1567.000
1969-12-01, 1436.000
1970-01-01, 1583.000
1970-02-01, 1754.000
1970-03-01, 1584.000
1970-04-01, 1620.000
1970-05-01, 1684.000
1970-06-01, 1549.000
1970-07-01, 1520.000
1970-08-01, 1382.000
1970-09-01, 1432.000
1970-10-01, 1483.000
1970-11-01, 1620.000
1970-12-01, 1528.000
1971-01-01, 1626.000
1971-02-01, 1378.000
1971-03-01, 1119.000
1971-04-01, 1167.000
1971-05-01, 1099.000
1971-06-01, 1017.000
1971-07-01, 1174.000
1971-08-01, 1141.000
1971-09-01, 1040.000
1971-10-01, 1072.000
1971-11-01, 1140.000
1971-12-01, 1245.000
1972-01-01, 1148.000
1972-02-01, 1418.000
1972-03-01, 1285.000
1972-04-01, 1129.000
1972-05-01, 1296.000
1972-06-01, 1354.000
1972-07-01, 1220.000
1972-08-01, 1257.000
1972-09-01, 1136.000
1972-10-01, 1211.000
1972-11-01, 1016.000
1972-12-01, 1029.000
1973-01-01, 1022.000
1973-02-01,  987.000
1973-03-01, 1004.000
1973-04-01, 1050.000
1973-05-01,  970.000
1973-06-01,  912.000
1973-07-01,  845.000
1973-08-01,  829.000
1973-09-01, 1056.000
1973-10-01,  877.000
1973-11-01,  815.000
1973-12-01,  842.000
1974-01-01,  831.000
1974-02-01,  809.000
1974-03-01,  792.000
1974-04-01,  861.000
1974-05-01,  906.000
1974-06-01,  863.000
1974-07-01,  925.000
1974-08-01,  830.000
1974-09-01,  878.000
1974-10-01,  976.000
1974-11-01,  903.000
1974-12-01,  811.000
1975-01-01,  775.000
1975-02-01,  742.000
1975-03-01,  724.000
1975-04-01,  707.000
1975-05-01,  701.000
1975-06-01,  697.000
1975-07-01,  772.000
1975-08-01,  904.000
1975-09-01,  796.000
1975-10-01,  757.000
1975-11-01,  808.000
1975-12-01,  746.000
1976-01-01,  747.000
1976-02-01,  705.000
1976-03-01,  767.000
1976-04-01,  763.000
1976-05-01,  706.000
1976-06-01,  706.000
1976-07-01,  675.000
1976-08-01,  748.000
1976-09-01,  731.000
1976-10-01,  759.000
1976-11-01,  729.000
1976-12-01,  767.000
1977-01-01,  774.000
1977-02-01,  823.000
1977-03-01,  766.000
1977-04-01,  776.000
1977-05-01,  796.000
1977-06-01,  915.000
1977-07-01,  811.000
1977-08-01,  843.000
1977-09-01,  999.000
1977-10-01,  969.000
1977-11-01,  937.000
1977-12-01, 1021.000
1978-01-01, 1096.000
1978-02-01, 1454.000
1978-03-01, 1418.000
1978-04-01, 1494.000
1978-05-01, 1465.000
1978-06-01, 1422.000
1978-07-01, 1311.000
1978-08-01, 1140.000
1978-09-01, 1579.000
1978-10-01, 1582.000
1978-11-01, 1515.000
1978-12-01, 1755.000
1979-01-01, 2030.000
1979-02-01, 2041.000
1979-03-01, 1858.000
1979-04-01, 1738.000
1979-05-01, 1652.000
1979-06-01, 1803.000
1979-07-01, 1659.000
1979-08-01, 1727.000
1979-09-01, 2002.000
1979-10-01, 2179.000
1979-11-01, 2317.000
1979-12-01, 2035.000
1980-01-01, 2062.000
1980-02-01, 2000.000
1980-03-01, 1681.000
1980-04-01, 2079.000
1980-05-01, 2240.000
1980-06-01, 1932.000
1980-07-01, 1848.000
1980-08-01, 1662.000
1980-09-01, 1839.000
1980-10-01, 2042.000
1980-11-01, 2181.000
1980-12-01, 2258.000
1981-01-01, 1746.000
1981-02-01, 2045.000
1981-03-01, 2053.000
1981-04-01, 2232.000
1981-05-01, 1946.000
1981-06-01, 1569.000
1981-07-01, 1919.000
1981-08-01, 2206.000
1981-09-01, 2195.000
1981-10-01, 2243.000
1981-11-01, 2078.000
1981-12-01, 2078.000
1982-01-01, 1790.000
1982-02-01, 2142.000
1982-03-01, 2105.000
1982-04-01, 1618.000
1982-05-01, 1447.000
1982-06-01, 1719.000
1982-07-01, 1596.000
1982-08-01, 1679.000
1982-09-01, 1653.000
1982-10-01, 1619.000
1982-11-01, 1674.000
1982-12-01, 1994.000
1983-01-01, 1423.000
1983-02-01, 1226.000
1983-03-01, 1186.000
1983-04-01, 1189.000
1983-05-01, 1371.000
1983-06-01, 1386.000
1983-07-01, 1250.000
1983-08-01, 1244.000
1983-09-01, 1090.000
1983-10-01, 1124.000
1983-11-01,  925.000
1983-12-01,  934.000
1984-01-01, 1161.000
1984-02-01, 1406.000
1984-03-01, 1220.000
1984-04-01, 1287.000
1984-05-01, 1283.000
1984-06-01, 1003.000
1984-07-01,  893.000
1984-08-01,  837.000
1984-09-01,  781.000
1984-10-01,  735.000
1984-11-01,  763.000
1984-12-01,  759.000
1985-01-01,  745.000
1985-02-01,  737.000
1985-03-01,  733.000
1985-04-01,  751.000
1985-05-01,  802.000
1985-06-01,  761.000
1985-07-01,  787.000
1985-08-01,  715.000
1985-09-01,  695.000
1985-10-01,  747.000
1985-11-01,  742.000
1985-12-01,  748.000
1986-01-01,  732.000
1986-02-01,  836.000
1986-03-01,  770.000
1986-04-01,  751.000
1986-05-01,  726.000
1986-06-01,  676.000
1986-07-01,  702.000
1986-08-01,  684.000
1986-09-01,  687.000
1986-10-01,  830.000
1986-11-01,  771.000
1986-12-01,  726.000
1987-01-01,  725.000
1987-02-01,  715.000
1987-03-01,  740.000
1987-04-01,  849.000
1987-05-01,  878.000
1987-06-01,  779.000
1987-07-01,  842.000
1987-08-01,  900.000
1987-09-01,  861.000
1987-10-01,  981.000
1987-11-01, 1012.000
1987-12-01,  944.000
1988-01-01, 1080.000
1988-02-01, 1050.000
1988-03-01, 1149.000
1988-04-01, 1227.000
1988-05-01, 1152.000
1988-06-01, 1394.000
1988-07-01, 1527.000
1988-08-01, 1542.000
1988-09-01, 1525.000
1988-10-01, 1698.000
1988-11-01, 1562.000
1988-12-01, 1998.000
1989-01-01, 2354.000
1989-02-01, 2224.000
1989-03-01, 2051.000
1989-04-01, 1896.000
1989-05-01, 1901.000
1989-06-01, 2396.000
1989-07-01, 1819.000
1989-08-01, 2171.000
1989-09-01, 2259.000
1989-10-01, 2087.000
1989-11-01, 2351.000
1989-12-01, 2130.000
1990-01-01, 2101.000
1990-02-01, 1783.000
1990-03-01, 1888.000
1990-04-01, 1853.000
1990-05-01, 1897.000
1990-06-01, 1709.000
1990-07-01, 1807.000
1990-08-01, 2226.000
1990-09-01, 1774.000
1990-10-01, 1820.000
1990-11-01, 1843.000
1990-12-01, 2049.000
1991-01-01, 2294.000
1991-02-01, 2430.000
1991-03-01, 2300.000
1991-04-01, 1988.000
1991-05-01, 1903.000
1991-06-01, 2068.000
1991-07-01, 2120.000
1991-08-01, 2103.000
1991-09-01, 1806.000
1991-10-01, 2013.000
1991-11-01, 1720.000
1991-12-01, 2239.000
1992-01-01, 2176.000
1992-02-01, 2321.000
1992-03-01, 1713.000
1992-04-01, 1585.000
1992-05-01, 1254.000
1992-06-01, 1167.000
1992-07-01, 1322.000
1992-08-01, 1221.000
1992-09-01, 1168.000
1992-10-01, 1317.000
1992-11-01, 1452.000
1992-12-01, 1391.000
1993-01-01, 1210.000
1993-02-01, 1426.000
1993-03-01, 1364.000
1993-04-01, 1159.000
1993-05-01, 1124.000
1993-06-01, 1093.000
1993-07-01,  990.000
1993-08-01,  937.000
1993-09-01,  870.000
1993-10-01, 1003.000
1993-11-01,  959.000
1993-12-01, 1048.000
1994-01-01, 1150.000
1994-02-01,  996.000
1994-03-01,  904.000
1994-04-01,  791.000
1994-05-01,  799.000
1994-06-01,  773.000
1994-07-01,  805.000
1994-08-01,  761.000
1994-09-01,  790.000
1994-10-01,  877.000
1994-11-01,  809.000
1994-12-01,  774.000
1995-01-01,  827.000
1995-02-01,  856.000
1995-03-01,  851.000
1995-04-01,  777.000
1995-05-01,  755.000
1995-06-01,  757.000
1995-07-01,  739.000
1995-08-01,  738.000
1995-09-01,  720.000
1995-10-01,  779.000
1995-11-01,  742.000
1995-12-01,  726.000
1996-01-01,  745.000
1996-02-01,  715.000
1996-03-01,  707.000
1996-04-01,  693.000
1996-05-01,  701.000
1996-06-01,  696.000
1996-07-01,  712.000
1996-08-01,  724.000
1996-09-01,  694.000
1996-10-01,  692.000
1996-11-01,  787.000
1996-12-01,  778.000
1997-01-01,  740.000
1997-02-01,  738.000
1997-03-01,  735.000
1997-04-01,  745.000
1997-05-01,  746.000
1997-06-01,  717.000
1997-07-01,  711.000
1997-08-01,  790.000
1997-09-01,  962.000
1997-10-01,  849.000
1997-11-01,  995.000
1997-12-01,  988.000
1998-01-01,  934.000
1998-02-01,  934.000
1998-03-01, 1091.000
1998-04-01, 1083.000
1998-05-01, 1067.000
1998-06-01, 1084.000
1998-07-01, 1140.000
1998-08-01, 1360.000
1998-09-01, 1383.000
1998-10-01, 1173.000
1998-11-01, 1402.000
1998-12-01, 1501.000
1999-01-01, 1426.000
1999-02-01, 1420.000
1999-03-01, 1263.000
1999-04-01, 1172.000
1999-05-01, 1486.000
1999-06-01, 1698.000
1999-07-01, 1656.000
1999-08-01, 1708.000
1999-09-01, 1357.000
1999-10-01, 1648.000
1999-11-01, 1915.000
1999-12-01, 1698.000
2000-01-01, 1581.000
2000-02-01, 1732.000
2000-03-01, 2082.000
2000-04-01, 1842.000
2000-05-01, 1845.000
2000-06-01, 1798.000
2000-07-01, 2047.000
2000-08-01, 1631.000
2000-09-01, 1821.000
2000-10-01, 1677.000
2000-11-01, 1788.000
2000-12-01, 1736.000
2001-01-01, 1666.000
2001-02-01, 1467.000
2001-03-01, 1777.000
2001-04-01, 1781.000
2001-05-01, 1479.000
2001-06-01, 1737.000
2001-07-01, 1313.000
2001-08-01, 1631.000
2001-09-01, 2338.000
2001-10-01, 2081.000
2001-11-01, 2127.000
2001-12-01, 2356.000
2002-01-01, 2273.000
2002-02-01, 2050.000
2002-03-01, 2044.000
2002-04-01, 1898.000
2002-05-01, 1784.000
2002-06-01, 1487.000
2002-07-01, 1735.000
2002-08-01, 1839.000
2002-09-01, 1758.000
2002-10-01, 1670.000
2002-11-01, 1687.000
2002-12-01, 1572.000
2003-01-01, 1440.000
2003-02-01, 1245.000
2003-03-01, 1322.000
2003-04-01, 1263.000
2003-05-01, 1162.000
2003-06-01, 1293.000
2003-07-01, 1277.000
2003-08-01, 1221.000
2003-09-01, 1122.000
2003-10-01, 1513.000
2003-11-01, 1408.000
2003-12-01, 1150.000
2004-01-01, 1141.000
2004-02-01, 1070.000
2004-03-01, 1120.000
2004-04-01, 1012.000
2004-05-01,  998.000
2004-06-01,  974.000
2004-07-01, 1185.000
2004-08-01, 1110.000
2004-09-01, 1030.000
2004-10-01, 1059.000
2004-11-01, 1137.000
2004-12-01,  950.000
2005-01-01, 1022.000
2005-02-01,  972.000
2005-03-01,  899.000
2005-04-01,  860.000
2005-05-01,  995.000
2005-06-01,  937.000
2005-07-01,  965.000
2005-08-01,  905.000
2005-09-01,  911.000
2005-10-01,  766.000
2005-11-01,  862.000
2005-12-01,  907.000
2006-01-01,  834.000
2006-02-01,  765.000
2006-03-01,  755.000
2006-04-01,  890.000
2006-05-01,  809.000
2006-06-01,  765.000
2006-07-01,  758.000
2006-08-01,  794.000
2006-09-01,  778.000
2006-10-01,  743.000
2006-11-01,  863.000
2006-12-01,  845.000
2007-01-01,  835.000
2007-02-01,  777.000
2007-03-01,  722.000
2007-04-01,  724.000
2007-05-01,  744.000
2007-06-01,  737.000
2007-07-01,  716.000
2007-08-01,  691.000
2007-09-01,  670.000
2007-10-01,  675.000
2007-11-01,  696.000
2007-12-01,  785.000
2008-01-01,  743.000
2008-02-01,  711.000
2008-03-01,  729.000
2008-04-01,  702.000
2008-05-01,  684.000
2008-06-01,  659.000
2008-07-01,  657.000
2008-08-01,  663.000
2008-09-01,  671.000
2008-10-01,  683.000
2008-11-01,  686.000
2008-12-01,  692.000
2009-01-01,  698.000
2009-02-01,  700.000
2009-03-01,  692.000
2009-04-01,  697.000
2009-05-01,  705.000
2009-06-01,  686.000
2009-07-01,  682.000
2009-08-01,  674.000
2009-09-01,  705.000
2009-10-01,  723.000
2009-11-01,  736.000
2009-12-01,  768.000
2010-01-01,  811.000
2010-02-01,  847.000
2010-03-01,  834.000
2010-04-01,  759.000
2010-05-01,  738.000
2010-06-01,  725.000
2010-07-01,  798.000
2010-08-01,  795.000
2010-09-01,  811.000
2010-10-01,  817.000
2010-11-01,  825.000
2010-12-01,  842.000
2011-01-01,  834.000
2011-02-01,  946.000
2011-03-01, 1158.000
2011-04-01, 1125.000
2011-05-01,  958.000
2011-06-01,  958.000
2011-07-01,  941.000
2011-08-01, 1017.000
2011-09-01, 1345.000
2011-10-01, 1372.000
2011-11-01, 1531.000
2011-12-01, 1412.000
2012-01-01, 1331.000
2012-02-01, 1068.000
2012-03-01, 1150.000
2012-04-01, 1131.000
2012-05-01, 1215.000
2012-06-01, 1209.000
2012-07-01, 1361.000
2012-08-01, 1157.000
2012-09-01, 1230.000
2012-10-01, 1232.000
2012-11-01, 1209.000
2012-12-01, 1083.000
2013-01-01, 1271.000
2013-02-01, 1042.000
2013-03-01, 1113.000
2013-04-01, 1251.000
2013-05-01, 1313.000
2013-06-01, 1101.000
2013-07-01, 1155.000
2013-08-01, 1154.000
2013-09-01, 1026.000
2013-10-01, 1324.000
2013-11-01, 1483.000
2013-12-01, 1477.000
2014-01-01, 1601.000
2014-02-01, 1702.000
2014-03-01, 1499.000
2014-04-01, 1442.000
2014-05-01, 1302.000
2014-06-01, 1221.000
2014-07-01, 1373.000
2014-08-01, 1252.000
2014-09-01, 1477.000
2014-10-01, 1551.000
2014-11-01, 1547.000
2014-12-01, 1589.000
2015-01-01, 1415.000
2015-02-01, 1289.000
2015-03-01, 1263.000
2015-04-01, 1290.000
2015-05-01, 1199.000
2015-06-01, 1268.000
2015-07-01, 1070.000
2015-08-01, 1065.000
2015-09-01, 1020.000
2015-10-01, 1040.000
2015-11-01, 1095.000
2015-12-01, 1127.000
2016-01-01, 1034.000
2016-02-01, 1035.000
2016-03-01,  915.000
2016-04-01,  934.000
2016-05-01,  932.000
2016-06-01,  819.000
2016-07-01,  859.000
2016-08-01,  849.000
2016-09-01,  877.000
2016-10-01,  860.000
2016-11-01,  785.000
2016-12-01,  751.000
2017-01-01,  773.000
2017-02-01,  768.000
2017-03-01,  746.000
2017-04-01,  810.000
2017-05-01,  735.000
2017-06-01,  747.000
2017-07-01,  776.000
2017-08-01,  779.000
2017-09-01,  933.000
2017-10-01,  764.000
2017-11-01,  723.000
2017-12-01,  715.000
2018-01-01,  700.000
2018-02-01,  720.000
2018-03-01,  684.000
2018-04-01,  700.000
2018-05-01,  709.000
2018-06-01,  725.000
2018-07-01,  697.000
2018-08-01,  691.000
2018-09-01,  683.000
2018-10-01,  695.000
2018-11-01,  689.000
2018-12-01,  700.000
2019-01-01,  716.000
2019-02-01,  706.000
2019-03-01,  715.000
2019-04-01,  725.000
2019-05-01,  713.000
2019-06-01,  681.000
2019-07-01,  673.000
2019-08-01,  671.000
2019-09-01,  680.000
2019-10-01,  675.000
2019-11-01,  702.000
2019-12-01,  709.000
2020-01-01,  723.000
2020-02-01,  709.000
2020-03-01,  702.000
2020-04-01,  696.000
2020-05-01,  692.000
2020-06-01,  697.000
2020-07-01,  695.000
2020-08-01,  717.000
2020-09-01,  706.000
2020-10-01,  746.000
2020-11-01,  901.000
2020-12-01,  873.000
2021-01-01,  901.000
2021-02-01,  873.000
2021-03-01,  761.000
2021-04-01,  743.000
2021-05-01,  765.000
2021-06-01,  747.000
2021-07-01,  798.000
2021-08-01,  810.000
2021-09-01,  779.000
2021-10-01,  901.000
2021-11-01,  866.000
2021-12-01, 1029.000
2022-01-01, 1041.000
2022-02-01, 1091.000
2022-03-01, 1178.000
2022-04-01, 1306.000
2022-05-01, 1340.000
2022-06-01, 1161.000
2022-07-01, 1256.000
2022-08-01, 1181.000
2022-09-01, 1347.000
2022-10-01, 1328.000
2022-11-01, 1236.000
2022-12-01, 1485.000
2023-01-01, 1825.000
2023-02-01, 1721.000
2023-03-01, 1575.000
2023-04-01, 1459.000
2023-05-01, 1560.000
2023-06-01, 1624.000
2023-07-01, 1775.000
2023-08-01, 1539.000
2023-09-01, 1557.000
2023-10-01, 1416.000
2023-11-01, 1544.000
2023-12-01, 1593.000
2024-01-01, 1640.000
2024-02-01, 1723.000
2024-03-01,-9999.000
2024-04-01,-9999.000
2024-05-01,-9999.000
2024-06-01,-9999.000
2024-07-01,-9999.000
2024-08-01,-9999.000
2024-09-01,-9999.000
2024-10-01,-9999.000
2024-11-01,-9999.000
2024-12-01,-9999.000
